Total_Precipitation_Accumulation
0.01 0.02 0.05 0.04 0.02 0.02 0.03 0.05 0.05 0.06 0.05 0.07 0.08 0.05 0.03 0.02 0.01 0.01 0.01 0.01 0.01 0.01 0.02 0.02 0.03 0.05 0.07 0.07 0.08 0.07 0.05 0.04 0.04 0.05 0.07 0.09 0.14 0.20 0.27 0.24 0.33 0.27 0.19
0.01 0.01 0.04 0.04 0.03 0.03 0.03 0.05 0.06 0.06 0.06 0.05 0.05 0.04 0.03 0.02 0.02 0.01 0.01 0.01 0.01 0.02 0.02 0.02 0.02 0.03 0.04 0.04 0.04 0.04 0.03 0.03 0.06 0.09 0.12 0.13 0.17 0.22 0.24 0.21 0.32 0.25 0.17
0.01 0.01 0.03 0.04 0.03 0.03 0.04 0.05 0.06 0.06 0.06 0.06 0.05 0.04 0.03 0.03 0.02 0.02 0.01 0.01 0.02 0.02 0.02 0.02 0.02 0.02 0.02 0.02 0.02 0.02 0.03 0.04 0.08 0.15 0.27 0.24 0.15 0.22 0.26 0.22 0.19 0.13 0.12
0.01 0.01 0.01 0.03 0.03 0.02 0.03 0.04 0.06 0.08 0.08 0.08 0.07 0.05 0.05 0.04 0.03 0.02 0.02 0.02 0.02 0.02 0.02 0.02 0.02 0.02 0.01 0.01 0.01 0.02 0.03 0.05 0.10 0.19 0.45 0.28 0.13 0.13 0.16 0.13 0.10 0.10 0.10
0.02 0.01 0.02 0.03 0.03 0.02 0.03 0.04 0.06 0.07 0.08 0.09 0.08 0.06 0.05 0.05 0.05 0.04 0.03 0.03 0.03 0.03 0.03 0.02 0.02 0.02 0.01 0.01 0.02 0.02 0.03 0.06 0.10 0.19 0.30 0.30 0.31 0.16 0.10 0.09 0.09 0.10 0.10
0.02 0.02 0.02 0.03 0.03 0.03 0.03 0.03 0.05 0.07 0.08 0.09 0.07 0.07 0.06 0.06 0.06 0.05 0.04 0.04 0.03 0.03 0.04 0.04 0.02 0.02 0.01 0.01 0.03 0.03 0.04 0.09 0.13 0.17 0.16 0.21 0.31 0.19 0.13 0.16 0.15 0.11 0.10
0.03 0.02 0.03 0.04 0.03 0.03 0.03 0.04 0.05 0.06 0.07 0.07 0.06 0.07 0.06 0.06 0.06 0.05 0.04 0.04 0.05 0.04 0.04 0.05 0.04 0.03 0.02 0.02 0.02 0.03 0.05 0.10 0.15 0.18 0.14 0.23 0.31 0.17 0.19 0.31 0.37 0.28 0.18
0.06 0.06 0.06 0.07 0.06 0.05 0.05 0.05 0.06 0.07 0.07 0.08 0.08 0.07 0.07 0.07 0.07 0.06 0.05 0.05 0.06 0.07 0.06 0.05 0.06 0.05 0.04 0.03 0.04 0.04 0.05 0.07 0.11 0.13 0.14 0.23 0.22 0.16 0.23 0.39 0.52 0.52 0.42
0.21 0.30 0.21 0.11 0.09 0.08 0.08 0.08 0.08 0.09 0.10 0.10 0.10 0.09 0.10 0.10 0.10 0.09 0.10 0.10 0.11 0.13 0.13 0.09 0.08 0.09 0.09 0.07 0.06 0.06 0.06 0.08 0.12 0.18 0.19 0.23 0.19 0.20 0.29 0.40 0.51 0.59 0.59
0.22 0.32 0.31 0.17 0.13 0.10 0.09 0.10 0.11 0.13 0.13 0.13 0.13 0.12 0.12 0.12 0.13 0.15 0.16 0.21 0.23 0.27 0.27 0.21 0.16 0.16 0.18 0.16 0.11 0.09 0.10 0.09 0.08 0.14 0.27 0.30 0.26 0.32 0.42 0.45 0.52 0.63 0.67
0.32 0.37 0.37 0.21 0.14 0.12 0.12 0.13 0.16 0.17 0.18 0.17 0.19 0.19 0.19 0.21 0.29 0.42 0.41 0.51 0.49 0.52 0.51 0.47 0.42 0.42 0.45 0.34 0.27 0.27 0.23 0.10 0.08 0.15 0.27 0.29 0.37 0.55 0.68 0.57 0.55 0.62 0.65
0.48 0.53 0.43 0.27 0.21 0.19 0.16 0.20 0.24 0.27 0.40 0.38 0.47 0.56 0.58 0.65 0.60 0.50 0.68 0.91 0.99 1.01 0.96 0.94 1.02 0.94 0.77 0.59 0.91 1.06 0.40 0.19 0.19 0.19 0.35 0.56 0.72 0.93 1.07 0.90 0.74 0.68 0.66
0.58 0.42 0.41 0.33 0.30 0.27 0.26 0.29 0.36 0.48 0.79 0.69 0.64 0.79 0.97 0.90 0.68 0.56 0.70 0.99 1.29 1.33 1.20 1.36 1.56 1.21 1.14 1.19 1.40 1.49 0.83 0.53 0.39 0.45 0.48 0.76 1.02 1.26 1.45 1.32 1.06 0.90 0.81
0.87 0.74 0.60 0.57 0.51 0.57 0.59 0.54 0.50 0.60 0.78 0.76 0.83 0.80 1.06 1.07 0.91 0.84 0.91 1.06 1.31 1.50 1.76 1.79 1.90 1.83 1.77 1.63 1.65 1.52 1.33 1.13 0.85 0.98 1.14 1.23 1.32 1.47 1.70 1.71 1.47 1.20 1.00
1.11 1.03 1.00 0.98 0.98 1.04 0.96 0.88 0.73 0.76 0.80 0.84 0.99 1.02 1.14 1.32 1.32 1.35 1.33 1.29 1.28 1.63 2.02 2.18 2.00 2.22 2.27 1.97 1.71 1.56 1.49 1.45 1.54 1.66 1.65 1.90 1.86 1.77 1.90 1.94 1.75 1.50 1.31
1.24 1.30 1.51 1.56 1.57 1.60 1.58 1.49 1.31 1.22 1.25 1.24 1.31 1.47 1.60 1.71 1.85 1.85 1.76 1.65 1.49 1.57 1.84 2.04 2.07 2.28 2.16 2.07 1.57 1.50 1.45 1.52 1.62 1.63 1.57 2.07 2.11 1.90 1.81 1.82 1.80 1.68 1.53
1.44 1.73 2.05 2.22 2.32 2.32 2.31 2.15 1.89 1.74 1.83 1.98 2.01 2.11 2.10 2.14 2.32 2.21 1.96 1.72 1.66 1.74 1.83 1.83 1.85 1.96 1.81 1.74 1.52 1.60 1.58 1.44 1.30 1.31 1.42 1.64 1.69 1.57 1.50 1.48 1.56 1.65 1.76
1.95 2.32 2.62 2.80 3.02 3.09 3.00 2.72 2.34 2.16 2.18 2.24 2.33 2.31 2.30 2.30 2.26 2.19 1.86 1.57 1.67 1.77 1.75 1.71 1.62 1.71 1.67 1.68 1.64 1.58 1.62 1.48 1.20 1.15 1.22 1.22 1.27 1.14 1.24 1.28 1.30 1.42 1.74
2.26 2.76 3.23 3.65 3.90 3.96 3.58 2.93 2.55 2.48 2.46 2.42 2.44 2.32 2.20 2.10 2.04 2.12 1.81 1.65 1.70 1.64 1.54 1.47 1.63 1.79 1.71 1.70 1.67 1.52 1.33 1.15 0.97 0.86 0.85 0.76 0.86 0.95 1.05 1.15 1.18 1.24 1.57
2.29 2.84 3.51 4.12 4.27 4.03 3.39 2.83 2.70 2.59 2.39 2.22 1.99 1.80 1.66 1.67 1.67 1.77 1.57 1.50 1.61 1.57 1.43 1.49 1.64 1.75 1.54 1.61 1.54 1.26 1.12 0.90 0.83 0.71 0.59 0.56 0.55 0.57 0.71 0.97 1.18 1.04 1.28
2.49 2.94 3.45 3.91 3.88 3.58 3.19 2.77 2.51 2.17 1.94 1.71 1.44 1.25 1.17 1.15 1.21 1.37 1.23 1.31 1.39 1.33 1.25 1.27 1.35 1.39 1.21 1.46 1.54 1.08 0.78 0.69 0.62 0.54 0.54 0.53 0.47 0.51 0.65 0.88 1.05 1.08 1.03
2.38 2.65 2.84 2.72 2.42 2.24 2.12 1.97 1.69 1.65 1.64 1.58 1.48 1.29 1.09 1.09 1.08 1.03 1.02 1.04 1.10 1.13 1.03 1.01 1.14 1.12 0.95 1.21 1.31 1.16 0.76 0.57 0.49 0.42 0.45 0.43 0.46 0.58 0.62 0.72 0.92 0.98 0.91
1.85 2.00 1.84 1.50 1.19 1.12 1.11 1.05 1.19 1.36 1.48 1.53 1.55 1.47 1.30 1.24 1.20 1.15 1.05 0.97 0.94 0.97 0.97 0.95 1.03 1.03 0.91 0.96 1.09 1.24 0.96 0.62 0.47 0.35 0.37 0.44 0.56 0.67 0.65 0.72 0.79 0.91 0.89
1.18 1.08 0.95 0.79 0.65 0.59 0.58 0.63 0.71 0.91 1.20 1.41 1.58 1.63 1.63 1.54 1.38 1.26 1.14 0.96 0.82 0.80 0.84 0.78 0.85 0.96 0.97 0.86 0.87 0.95 0.96 0.98 0.88 0.52 0.32 0.36 0.55 0.65 0.66 0.68 0.73 0.86 0.95
0.62 0.54 0.49 0.49 0.48 0.48 0.49 0.59 0.62 0.58 0.65 0.66 0.74 0.88 1.04 1.15 1.11 0.97 0.91 0.85 0.75 0.69 0.68 0.72 0.83 0.92 0.95 0.87 0.86 0.86 0.90 1.04 1.05 0.91 0.57 0.50 0.56 0.55 0.54 0.59 0.70 0.83 0.96
0.38 0.34 0.38 0.45 0.54 0.53 0.55 0.58 0.58 0.56 0.62 0.61 0.62 0.65 0.64 0.67 0.69 0.67 0.66 0.68 0.67 0.66 0.66 0.66 0.72 0.81 0.90 0.95 0.96 1.01 1.05 1.06 1.12 1.20 0.98 0.80 0.74 0.65 0.63 0.72 0.84 1.02 1.13